ROMMA est une association bénévole à but non lucratif. Votre soutien est indispensable : ADHERER à ROMMA ou FAIRE un DON

Chamrousse - (38, Isère)

Massif de Belledonne (1800 m)   Longitude: 05° 52' 28" E   Latitude: 45° 06' 28" N Station partenaire n°3
 

Détail journalier du     <<     >>

Température Precipitation Humidité Pression Vent Dir Rafale Dir. rafale
Heure (°C) (mm) (%) (hPa) (km/h) (km/h)
01:00 3.80100101012N24N
02:00 3.8010010107N18N
03:00 3.80100100910NNO21NNO
04:00 3.8010010107N16N
05:00 3.5010010097N15NNE
06:00 3.3010010104NNE13NNE
07:00 3.3010010105N13N
08:00 3.2010010116NNO15NNO
09:00 3.1010010117NNO15NNO
10:00 3.4010010116NNO13NNO
11:00 3.3010010125NO15NO
12:00 4.6010010115O15O
13:00 5.4010010115O15O
14:00 6.1010010113O15O
15:00 6.4010010115O16O
16:00 6.3010010126OSO18O
17:00 6.8010010118ONO23ONO
18:00 6.60100101210ONO27ONO
19:00 6.40100101210O21NO
20:00 6.1087101212ONO24NO
21:00 6.2069101310N21N
22:00 5.3069101313N21N
23:00 5.1065101413N23NNO
minuit 4.9063101312N21NNE

Graphique du 22-05-2008

 

Serveur OMMA